Flag for Paraguay Weather past 2 weeks in Ciudad del Este, Paraguay

Now
79 °F

Passing clouds.


Feels Like: 82 °F
Forecast: 72 / 92 °F
Wind: 8 mph from East

Location: Foz Do Iguacu Aeroporto

Current Time: Feb 28, 2015 at 9:47:57 AM

Latest Report: Feb 28, 2015 at 9:00 AM


Visibility: N/A

Pressure: 29.98 "Hg

Humidity: 79%

Dew point: 72 °F

Location of Ciudad del EsteLocation

Historic Weather in Ciudad del Este — Graph

°F

Ciudad del Este temperature yesterday

Maximum temperature yesterday: 93 °F (at 2:00 PM)
Minimum temperature yesterday: 73 °F (at 3:00 AM)
Average temperature yesterday: 80 °F

Past Weeks' High & Low Weather Summary

 TemperatureHumidityPressure
High93 °F (Feb 14, 1:00 AM)100% (Feb 13, 8:00 AM)30.07 "Hg (Feb 13, 8:00 AM)
Low39 °F (Feb 17, 7:00 PM)49% (Feb 22, 3:00 PM)29.36 "Hg (Feb 22, 4:00 AM)
Average78 °F83%29.89 "Hg
* Reported Feb 13 8:00 AM — Feb 28 8:00 AM, Ciudad del Este, Weather by CustomWeather, © 2015

Note: Actual official high and low records may vary slightly from our data, if they occured in-between our weather recording intervals... More about our weather records

Advertising

Ciudad del Este weather history for previous 24 hours

 ConditionsComfort  
Time TempWeatherWind HumidityBarometerVisibility
8:00 AM
Sat, Feb 28
75 °FSunny.No wind89%29.95 "Hg10 mi
7:00 AM72 °FSunny.No wind94%29.92 "Hg10 mi
6:00 AM72 °FSunny.3 mph94%29.89 "Hg10 mi
5:00 AM72 °FPassing clouds.6 mph94%29.86 "HgN/A
4:00 AM72 °FPassing clouds.6 mph100%29.86 "HgN/A
3:00 AM73 °FPassing clouds.6 mph94%29.86 "HgN/A
2:00 AM73 °FClear.8 mph94%29.89 "Hg10 mi
1:00 AM73 °FClear.6 mph94%29.92 "Hg10 mi
12:00 AM73 °FClear.3 mph100%29.95 "Hg10 mi
11:00 PM
Fri, Feb 27
75 °FPassing clouds.5 mph94%29.95 "HgN/A
10:00 PM75 °FPassing clouds.No wind94%29.95 "HgN/A
9:00 PM75 °FPassing clouds.3 mph94%29.92 "HgN/A
8:00 PM75 °FPartly cloudy.No wind94%29.89 "HgN/A
7:00 PM77 °FPartly cloudy.9 mph89%29.86 "HgN/A
6:00 PM79 °FBroken clouds.3 mph84%29.83 "HgN/A
5:07 PM77 °FThunderstorms. Broken clouds.6 mph89%N/A2 mi
5:00 PM79 °FThunderstorms. Broken clouds.7 mph84%29.83 "HgN/A
4:00 PM79 °FThunderstorms. Broken clouds.5 mph84%29.80 "HgN/A
3:00 PM90 °FScattered clouds.5 mph63%29.80 "HgN/A
2:00 PM93 °FScattered clouds.6 mph53%29.83 "HgN/A
1:00 PM90 °FScattered clouds.5 mph63%29.86 "HgN/A
12:00 PM90 °FScattered clouds.5 mph59%29.89 "HgN/A
11:00 AM90 °FPassing clouds.6 mph63%29.89 "HgN/A
10:00 AM88 °FSunny.5 mph66%29.89 "Hg10 mi
9:00 AM84 °FSunny.3 mph79%29.89 "Hg10 mi
Weather by CustomWeather, © 2015

See weather overviewHow to use our weather pages